Regional Weather Roundup
Issued by NWS

Home | Current Version | Previous Version | Graphics & Text | Print | Product List | Glossary On
Versions: 1 2 3 4 5 6 7 8 9 10 11 12 13 14 15 16 17 18 19 20 21 22 23 24 25 26 27 28 29 30 31 32 33 34 35 36 37 38 39 40 41 42 43 44 45 46 47 48 49 50
000
ASUS45 KBOI 230510
RWRID

IDAHO REGIONAL WEATHER ROUNDUP
NATIONAL WEATHER SERVICE BOISE ID
1100 PM MDT FRI MAY 22 2015

NOTE: "FAIR" INDICATES FEW OR NO CLOUDS BELOW 12000 FEET
WITH NO SIGNIFICANT WEATHER AND/OR OBSTRUCTIONS TO VISIBILITY

IDZ012-014-230600-
SOUTHWEST IDAHO


CITY           SKY/WX    TMP DP  RH WIND       PRES   REMARKS
BOISE          CLOUDY    64  49  57 CALM      29.86R
CALDWELL       CLOUDY    61  46  59 W6        29.87R
MOUNTAIN HOME  MOCLDY    62  46  56 N5        29.85R HAZE
$$

IDZ016-017-230600-
SOUTHCENTRAL IDAHO


CITY           SKY/WX    TMP DP  RH WIND       PRES   REMARKS
BURLEY         MOCLDY    53  48  83 CALM      29.88S
JEROME         MOCLDY    54  48  80 E5        29.90R
TWIN FALLS     MOCLDY    54  47  77 S9        29.87R
$$

IDZ019>023-230600-
SOUTHEAST IDAHO


CITY           SKY/WX    TMP DP  RH WIND       PRES   REMARKS
IDAHO FALLS    CLOUDY    56  48  74 CALM      29.92R
POCATELLO      CLOUDY    56  50  80 S6        29.91S
REXBURG        CLOUDY    52  46  80 S8        29.92R
$$

IDZ006-010-011-018-031-032-230600-
CENTRAL IDAHO MOUNTAINS


CITY           SKY/WX    TMP DP  RH WIND       PRES   REMARKS
MCCALL         CLOUDY    49  46  90 N6        29.94S
HAILEY         CLOUDY    50  48  93 NW8       29.95R
STANLEY          N/A     44  41  89 CALM      29.99R
SALMON         CLOUDY    54  46  76 CALM      29.93R
CHALLIS        CLOUDY    54  41  61 NW6       29.93R
$$

IDZ002-004-006-007-026-230600-
NORTHERN IDAHO


CITY           SKY/WX    TMP DP  RH WIND       PRES   REMARKS
LEWISTON       CLOUDY    67  48  50 E7        29.83R
LOWELL           N/A     60  55  83 CALM      29.86R
COEUR D`ALENE  CLOUDY    63  45  51 SW8       29.86R
MULLAN PASS    CLOUDY    55  31  39 CALM      30.01R
$$



USA.gov is the U.S. government's official web portal to all federal, state and local government web resources and services.